| time (UTC) | temp C | wind direction | speed KPH | gust KPH | rain 1hr cm | rain 24hr cm | rain mn cm | humidity % | barometer mb |
| 20260504001554 | 25 | 186 | 3.2 | 9.7 | 0.00 | 0.00 | 0.00 | 49 | 1008.6 |
| 20260504001023 | 25 | 197 | 4.8 | 9.7 | 0.00 | 0.00 | 0.00 | 48 | 1008.7 |
| 20260504000525 | 25 | 212 | 6.4 | 9.7 | 0.00 | 0.00 | 0.00 | 50 | 1008.7 |
| 20260504000039 | 25 | 219 | 4.8 | 6.4 | 0.00 | 0.00 | 0.00 | 49 | 1008.8 |
| 20260503235525 | 25 | 213 | 3.2 | 9.7 | 0.00 | 0.00 | 0.00 | 52 | 1008.8 |
| 20260503235025 | 25 | 200 | 4.8 | 9.7 | 0.00 | 0.00 | 0.00 | 53 | 1008.9 |
| 20260503234536 | 26 | 200 | 6.4 | 9.7 | 0.00 | 0.00 | 0.00 | 47 | 1009.0 |
| 20260503234028 | 25 | 208 | 6.4 | 9.7 | 0.00 | 0.00 | 0.00 | 49 | 1008.9 |
| 20260503233525 | 25 | 193 | 6.4 | 11.3 | 0.00 | 0.00 | 0.00 | 54 | 1009.0 |
| 20260503233036 | 25 | 205 | 9.7 | 11.3 | 0.00 | 0.00 | 0.00 | 52 | 1009.1 |
| 20260503232527 | 25 | 194 | 9.7 | 11.3 | 0.00 | 0.00 | 0.00 | 52 | 1009.1 |
| 20260503232024 | 25 | 208 | 8.0 | 11.3 | 0.00 | 0.00 | 0.00 | 49 | 1009.2 |
| 20260503231550 | 25 | 206 | 8.0 | 12.9 | 0.00 | 0.00 | 0.00 | 50 | 1009.2 |
| 20260503231026 | 25 | 202 | 9.7 | 12.9 | 0.00 | 0.00 | 0.00 | 55 | 1009.3 |
| 20260503230526 | 25 | 205 | 8.0 | 11.3 | 0.00 | 0.00 | 0.00 | 50 | 1009.3 |
| 20260503230041 | 25 | 200 | 6.4 | 12.9 | 0.00 | 0.00 | 0.00 | 50 | 1009.4 |
| 20260503225529 | 24 | 150 | 6.4 | 12.9 | 0.00 | 0.00 | 0.00 | 52 | 1009.5 |
| 20260503225028 | 24 | 203 | 9.7 | 12.9 | 0.00 | 0.00 | 0.00 | 55 | 1009.5 |
| 20260503224538 | 25 | 200 | 9.7 | 12.9 | 0.00 | 0.00 | 0.00 | 55 | 1009.6 |
| 20260503224027 | 25 | 203 | 6.4 | 11.3 | 0.00 | 0.00 | 0.00 | 52 | 1009.6 |
| 20260503223525 | 25 | 198 | 8.0 | 11.3 | 0.00 | 0.00 | 0.00 | 53 | 1009.6 |
| 20260503223042 | 25 | 210 | 8.0 | 11.3 | 0.00 | 0.00 | 0.00 | 58 | 1009.7 |
| 20260503222524 | 25 | 205 | 8.0 | 11.3 | 0.00 | 0.00 | 0.00 | 56 | 1009.8 |
| 20260503222022 | 25 | 214 | 6.4 | 11.3 | 0.00 | 0.00 | 0.00 | 50 | 1009.8 |
| 20260503221536 | 25 | 198 | 8.0 | 12.9 | 0.00 | 0.00 | 0.00 | 51 | 1009.9 |
| 20260503221023 | 24 | 215 | 9.7 | 12.9 | 0.00 | 0.00 | 0.00 | 54 | 1009.9 |
| 20260503220526 | 24 | 198 | 9.7 | 12.9 | 0.00 | 0.00 | 0.00 | 54 | 1010.1 |
| 20260503220042 | 24 | 187 | 8.0 | 12.9 | 0.00 | 0.00 | 0.00 | 54 | 1010.2 |
| 20260503215522 | 24 | 193 | 9.7 | 12.9 | 0.00 | 0.00 | 0.00 | 54 | 1010.2 |
| 20260503215025 | 25 | 205 | 8.0 | 12.9 | 0.00 | 0.00 | 0.00 | 50 | 1010.3 |
| 20260503214550 | 24 | 193 | 8.0 | 12.9 | 0.00 | 0.00 | 0.00 | 52 | 1010.5 |
| 20260503214025 | 24 | 207 | 8.0 | 12.9 | 0.00 | 0.00 | 0.00 | 55 | 1010.5 |
| 20260503213524 | 24 | 210 | 8.0 | 12.9 | 0.00 | 0.00 | 0.00 | 54 | 1010.5 |
| 20260503213102 | 23 | 203 | 8.0 | 11.3 | 0.00 | 0.00 | 0.00 | 58 | 1010.6 |
| 20260503212523 | 23 | 181 | 8.0 | 12.9 | 0.00 | 0.00 | 0.00 | 63 | 1010.7 |
| 20260503212023 | 23 | 207 | 9.7 | 12.9 | 0.00 | 0.00 | 0.00 | 60 | 1010.8 |
| 20260503211600 | 23 | 201 | 8.0 | 12.9 | 0.00 | 0.00 | 0.00 | 63 | 1010.8 |
| 20260503211030 | 23 | 192 | 9.7 | 12.9 | 0.00 | 0.00 | 0.00 | 64 | 1010.8 |
| 20260503210523 | 23 | 205 | 9.7 | 12.9 | 0.00 | 0.00 | 0.00 | 65 | 1010.9 |
| 20260503210036 | 24 | 184 | 8.0 | 11.3 | 0.00 | 0.00 | 0.00 | 54 | 1011.0 |
| 20260503205523 | 24 | 201 | 8.0 | 9.7 | 0.00 | 0.00 | 0.00 | 55 | 1011.0 |
| 20260503205027 | 23 | 215 | 6.4 | 12.9 | 0.00 | 0.00 | 0.00 | 61 | 1011.1 |
| 20260503204552 | 23 | 210 | 8.0 | 12.9 | 0.00 | 0.00 | 0.00 | 64 | 1011.2 |
| 20260503204026 | 23 | 208 | 8.0 | 16.1 | 0.00 | 0.00 | 0.00 | 63 | 1011.2 |
| 20260503203522 | 24 | 201 | 9.7 | 16.1 | 0.00 | 0.00 | 0.00 | 64 | 1011.3 |
| 20260503203042 | 25 | 194 | 4.8 | 9.7 | 0.00 | 0.00 | 0.00 | 60 | 1011.4 |
| 20260503202523 | 25 | 20 | 3.2 | 4.8 | 0.00 | 0.00 | 0.00 | 55 | 1011.4 |
| 20260503202023 | 25 | 6 | 3.2 | 4.8 | 0.00 | 0.00 | 0.00 | 50 | 1011.4 |
| 20260503201539 | 25 | 4 | 3.2 | 6.4 | 0.00 | 0.00 | 0.00 | 51 | 1011.6 |
| 20260503201023 | 25 | 27 | 3.2 | 6.4 | 0.00 | 0.00 | 0.00 | 46 | 1011.6 |
| 20260503200527 | 25 | 17 | 4.8 | 6.4 | 0.00 | 0.00 | 0.00 | 43 | 1011.6 |
| 20260503200038 | 25 | 15 | 1.6 | 4.8 | 0.00 | 0.00 | 0.00 | 44 | 1011.7 |
| 20260503195523 | 25 | 25 | 1.6 | 4.8 | 0.00 | 0.00 | 0.00 | 44 | 1011.7 |
| 20260503195026 | 24 | 25 | 1.6 | 4.8 | 0.00 | 0.00 | 0.00 | 47 | 1011.8 |
| 20260503194535 | 24 | 25 | 1.6 | 6.4 | 0.00 | 0.00 | 0.00 | 46 | 1011.9 |
| 20260503194023 | 24 | 30 | 3.2 | 6.4 | 0.00 | 0.00 | 0.00 | 45 | 1012.0 |
| 20260503193524 | 24 | 27 | 3.2 | 4.8 | 0.00 | 0.00 | 0.00 | 47 | 1012.0 |
| 20260503193042 | 23 | 30 | 3.2 | 4.8 | 0.00 | 0.00 | 0.00 | 45 | 1012.1 |
| 20260503192523 | 23 | 23 | 1.6 | 3.2 | 0.00 | 0.00 | 0.00 | 49 | 1012.2 |
| 20260503192024 | 23 | 23 | 1.6 | 3.2 | 0.00 | 0.00 | 0.00 | 48 | 1012.2 |
| 20260503191555 | 23 | 23 | 3.2 | 3.2 | 0.00 | 0.00 | 0.00 | 49 | 1012.2 |
| 20260503191025 | 22 | 21 | 1.6 | 3.2 | 0.00 | 0.00 | 0.00 | 54 | 1012.4 |
| 20260503190525 | 22 | 22 | 1.6 | 3.2 | 0.00 | 0.00 | 0.00 | 59 | 1012.4 |
| 20260503190040 | 22 | 22 | 1.6 | 3.2 | 0.00 | 0.00 | 0.00 | 56 | 1012.4 |
| 20260503185526 | 22 | 23 | 3.2 | 4.8 | 0.00 | 0.00 | 0.00 | 55 | 1012.6 |
| 20260503185025 | 22 | 21 | 1.6 | 4.8 | 0.00 | 0.00 | 0.00 | 52 | 1012.6 |
| 20260503184544 | 22 | 32 | 1.6 | 3.2 | 0.00 | 0.00 | 0.00 | 52 | 1012.7 |
| 20260503184026 | 21 | 32 | 3.2 | 3.2 | 0.00 | 0.00 | 0.00 | 52 | 1012.8 |
| 20260503183524 | 21 | 32 | 1.6 | 3.2 | 0.00 | 0.00 | 0.00 | 53 | 1012.9 |
| 20260503183043 | 21 | 32 | 1.6 | 3.2 | 0.00 | 0.00 | 0.00 | 56 | 1013.0 |
| 20260503182524 | 21 | 32 | 1.6 | 4.8 | 0.00 | 0.00 | 0.00 | 55 | 1013.0 |
| 20260503182025 | 20 | 32 | 1.6 | 4.8 | 0.00 | 0.00 | 0.00 | 55 | 1013.1 |
| 20260503181543 | 20 | 39 | 1.6 | 3.2 | 0.00 | 0.00 | 0.00 | 57 | 1013.1 |
| 20260503181025 | 19 | 39 | 1.6 | 3.2 | 0.00 | 0.00 | 0.00 | 60 | 1013.0 |
| 20260503180525 | 19 | 159 | 0.0 | 1.6 | 0.00 | 0.00 | 0.00 | 64 | 1013.1 |
| 20260503180042 | 18 | 159 | 0.0 | 3.2 | 0.00 | 0.00 | 0.00 | 70 | 1013.1 |
| 20260503175525 | 18 | 160 | 0.0 | 4.8 | 0.00 | 0.00 | 0.00 | 75 | 1013.1 |
| 20260503175024 | 17 | 160 | 1.6 | 6.4 | 0.00 | 0.00 | 0.00 | 77 | 1013.2 |
| 20260503174551 | 17 | 218 | 3.2 | 6.4 | 0.00 | 0.00 | 0.00 | 81 | 1013.3 |
| 20260503174024 | 17 | 204 | 4.8 | 8.0 | 0.00 | 0.00 | 0.00 | 83 | 1013.3 |
| 20260503173525 | 16 | 207 | 1.6 | 8.0 | 0.00 | 0.00 | 0.00 | 80 | 1013.3 |
| 20260503173037 | 16 | 224 | 1.6 | 6.4 | 0.00 | 0.00 | 0.00 | 82 | 1013.3 |
| 20260503172523 | 16 | 171 | 3.2 | 6.4 | 0.00 | 0.00 | 0.00 | 83 | 1013.4 |
| 20260503172024 | 16 | 146 | 0.0 | 3.2 | 0.00 | 0.00 | 0.00 | 84 | 1013.4 |
| 20260503171537 | 15 | 0 | 0.0 | 3.2 | 0.00 | 0.00 | 0.00 | 84 | 1013.4 |
| 20260503171029 | 15 | 146 | 0.0 | 3.2 | 0.00 | 0.00 | 0.00 | 85 | 1013.4 |
| 20260503170525 | 15 | 146 | 0.0 | 3.2 | 0.00 | 0.00 | 0.00 | 85 | 1013.5 |
| 20260503150530 | 11 | 134 | 0.0 | 1.6 | 0.00 | 0.00 | 0.00 | 92 | 1013.8 |
| 20260503131025 | 10 | 0 | 0.0 | 0.0 | 0.00 | 0.00 | 0.00 | 93 | 1013.6 |
| 20260503130522 | 10 | 0 | 0.0 | 0.0 | 0.00 | 0.00 | 0.00 | 93 | 1013.6 |
| 20260503110528 | 10 | 132 | 0.0 | 0.0 | 0.00 | 0.00 | 0.00 | 90 | 1013.8 |
| 20260503081554 | 11 | 0 | 0.0 | 0.0 | 0.00 | 0.00 | 0.00 | 89 | 1014.2 |
| 20260503081024 | 11 | 141 | 0.0 | 0.0 | 0.00 | 0.00 | 0.00 | 89 | 1014.3 |
| 20260503080524 | 11 | 0 | 0.0 | 0.0 | 0.00 | 0.00 | 0.00 | 88 | 1014.2 |
| 20260503072527 | 12 | 0 | 0.0 | 0.0 | 0.00 | 0.00 | 0.00 | 86 | 1013.9 |
| 20260503072023 | 12 | 0 | 0.0 | 0.0 | 0.00 | 0.00 | 0.00 | 85 | 1014.0 |
| 20260503071600 | 12 | 0 | 0.0 | 0.0 | 0.00 | 0.00 | 0.00 | 85 | 1014.0 |
| 20260503071023 | 13 | 0 | 0.0 | 0.0 | 0.00 | 0.00 | 0.00 | 84 | 1014.0 |
| 20260503070527 | 13 | 0 | 0.0 | 0.0 | 0.00 | 0.00 | 0.00 | 84 | 1014.0 |
| 20260503055024 | 13 | 143 | 0.0 | 1.6 | 0.00 | 0.00 | 0.00 | 83 | 1013.7 |
| 20260503054551 | 13 | 143 | 0.0 | 1.6 | 0.00 | 0.00 | 0.00 | 81 | 1013.7 |
| 20260503054025 | 14 | 143 | 0.0 | 1.6 | 0.00 | 0.00 | 0.00 | 80 | 1013.7 |
| 20260503053525 | 14 | 143 | 1.6 | 1.6 | 0.00 | 0.00 | 0.00 | 78 | 1013.7 |
| 20260503053041 | 14 | 143 | 0.0 | 1.6 | 0.00 | 0.00 | 0.00 | 79 | 1013.7 |
| 20260503052525 | 14 | 143 | 0.0 | 3.2 | 0.00 | 0.00 | 0.00 | 80 | 1013.7 |
| 20260503052024 | 15 | 143 | 1.6 | 3.2 | 0.00 | 0.00 | 0.00 | 80 | 1013.7 |
| 20260503051548 | 15 | 143 | 0.0 | 3.2 | 0.00 | 0.00 | 0.00 | 78 | 1013.7 |
| 20260503051027 | 15 | 143 | 1.6 | 3.2 | 0.00 | 0.00 | 0.00 | 79 | 1013.7 |
| 20260503050524 | 15 | 143 | 0.0 | 3.2 | 0.00 | 0.00 | 0.00 | 77 | 1013.5 |
| 20260503050040 | 15 | 143 | 1.6 | 3.2 | 0.00 | 0.00 | 0.00 | 79 | 1013.4 |
| 20260503045525 | 15 | 143 | 0.0 | 3.2 | 0.00 | 0.00 | 0.00 | 76 | 1013.4 |
| 20260503045030 | 15 | 143 | 0.0 | 3.2 | 0.00 | 0.00 | 0.00 | 78 | 1013.4 |
| 20260503044537 | 15 | 143 | 0.0 | 3.2 | 0.00 | 0.00 | 0.00 | 77 | 1013.3 |
| 20260503044024 | 16 | 143 | 1.6 | 3.2 | 0.00 | 0.00 | 0.00 | 77 | 1013.2 |
| 20260503043526 | 16 | 0 | 0.0 | 3.2 | 0.00 | 0.00 | 0.00 | 76 | 1013.2 |
| 20260503043036 | 16 | 143 | 0.0 | 3.2 | 0.00 | 0.00 | 0.00 | 77 | 1013.2 |
| 20260503042525 | 16 | 149 | 1.6 | 3.2 | 0.00 | 0.00 | 0.00 | 78 | 1013.2 |
| 20260503042025 | 16 | 148 | 1.6 | 3.2 | 0.00 | 0.00 | 0.00 | 76 | 1013.0 |
| 20260503041535 | 17 | 149 | 3.2 | 3.2 | 0.00 | 0.00 | 0.00 | 73 | 1012.9 |
| 20260503041025 | 17 | 147 | 1.6 | 4.8 | 0.00 | 0.00 | 0.00 | 69 | 1012.9 |
| 20260503040527 | 17 | 146 | 1.6 | 4.8 | 0.00 | 0.00 | 0.00 | 72 | 1012.8 |
| 20260503040044 | 17 | 160 | 1.6 | 4.8 | 0.00 | 0.00 | 0.00 | 73 | 1012.7 |
| 20260503035524 | 17 | 158 | 1.6 | 4.8 | 0.00 | 0.00 | 0.00 | 74 | 1012.5 |
| 20260503035026 | 17 | 149 | 1.6 | 3.2 | 0.00 | 0.00 | 0.00 | 74 | 1012.5 |
| 20260503034543 | 17 | 212 | 1.6 | 4.8 | 0.00 | 0.00 | 0.00 | 74 | 1012.5 |
| 20260503034024 | 17 | 212 | 1.6 | 4.8 | 0.00 | 0.00 | 0.00 | 69 | 1012.4 |
| 20260503033525 | 18 | 158 | 1.6 | 3.2 | 0.00 | 0.00 | 0.00 | 68 | 1012.3 |
| 20260503033050 | 18 | 146 | 1.6 | 3.2 | 0.00 | 0.00 | 0.00 | 68 | 1012.2 |
| 20260503032525 | 19 | 154 | 0.0 | 3.2 | 0.00 | 0.00 | 0.00 | 63 | 1012.2 |
| 20260503032025 | 19 | 154 | 1.6 | 4.8 | 0.00 | 0.00 | 0.00 | 62 | 1012.1 |
| 20260503031538 | 20 | 150 | 0.0 | 4.8 | 0.00 | 0.00 | 0.00 | 59 | 1012.2 |
| 20260503031025 | 20 | 150 | 1.6 | 4.8 | 0.00 | 0.00 | 0.00 | 60 | 1012.1 |
| 20260503030526 | 21 | 144 | 1.6 | 3.2 | 0.00 | 0.00 | 0.00 | 55 | 1012.1 |
| 20260503030043 | 21 | 139 | 0.0 | 3.2 | 0.00 | 0.00 | 0.00 | 54 | 1012.0 |
| 20260503025525 | 21 | 142 | 0.0 | 6.4 | 0.00 | 0.00 | 0.00 | 54 | 1011.9 |
| 20260503025026 | 22 | 146 | 1.6 | 6.4 | 0.00 | 0.00 | 0.00 | 52 | 1011.9 |
| 20260503024547 | 22 | 79 | 0.0 | 3.2 | 0.00 | 0.00 | 0.00 | 51 | 1012.0 |
| 20260503024025 | 23 | 79 | 1.6 | 3.2 | 0.00 | 0.00 | 0.00 | 49 | 1011.9 |
| 20260503023525 | 23 | 71 | 1.6 | 8.0 | 0.00 | 0.00 | 0.00 | 47 | 1011.8 |
| 20260503023045 | 23 | 120 | 1.6 | 8.0 | 0.00 | 0.00 | 0.00 | 49 | 1011.7 |
| 20260503022525 | 23 | 41 | 1.6 | 8.0 | 0.00 | 0.00 | 0.00 | 48 | 1011.7 |
| 20260503022026 | 23 | 102 | 1.6 | 8.0 | 0.00 | 0.00 | 0.00 | 47 | 1011.7 |
| 20260503021543 | 24 | 30 | 1.6 | 6.4 | 0.00 | 0.00 | 0.00 | 45 | 1011.7 |
| 20260503021026 | 25 | 25 | 1.6 | 6.4 | 0.00 | 0.00 | 0.00 | 45 | 1011.7 |
| 20260503020529 | 25 | 36 | 1.6 | 6.4 | 0.00 | 0.00 | 0.00 | 45 | 1011.6 |
| 20260503020047 | 24 | 9 | 3.2 | 6.4 | 0.00 | 0.00 | 0.00 | 48 | 1011.6 |
| 20260503015526 | 25 | 16 | 3.2 | 8.0 | 0.00 | 0.00 | 0.00 | 45 | 1011.6 |
| 20260503015026 | 25 | 26 | 4.8 | 11.3 | 0.00 | 0.00 | 0.00 | 42 | 1011.7 |
| 20260503014551 | 25 | 33 | 4.8 | 11.3 | 0.00 | 0.00 | 0.00 | 43 | 1011.6 |
| 20260503014027 | 25 | 22 | 4.8 | 11.3 | 0.00 | 0.00 | 0.00 | 46 | 1011.6 |
| 20260503013526 | 25 | 17 | 3.2 | 8.0 | 0.00 | 0.00 | 0.00 | 42 | 1011.6 |
| 20260503013045 | 25 | 13 | 4.8 | 8.0 | 0.00 | 0.00 | 0.00 | 42 | 1011.7 |
| 20260503012525 | 26 | 11 | 4.8 | 6.4 | 0.00 | 0.00 | 0.00 | 42 | 1011.7 |
| 20260503012028 | 26 | 79 | 3.2 | 6.4 | 0.00 | 0.00 | 0.00 | 44 | 1011.7 |
| 20260503011543 | 25 | 29 | 1.6 | 9.7 | 0.00 | 0.00 | 0.00 | 45 | 1011.6 |
| 20260503011030 | 25 | 33 | 3.2 | 9.7 | 0.00 | 0.00 | 0.00 | 44 | 1011.6 |
| 20260503010526 | 24 | 39 | 4.8 | 8.0 | 0.00 | 0.00 | 0.00 | 47 | 1011.6 |
| 20260503010037 | 22 | 35 | 1.6 | 6.4 | 0.00 | 0.00 | 0.00 | 52 | 1011.7 |
| 20260503005525 | 22 | 224 | 3.2 | 6.4 | 0.00 | 0.00 | 0.00 | 60 | 1011.8 |
| 20260503005026 | 22 | 206 | 3.2 | 9.7 | 0.00 | 0.00 | 0.00 | 59 | 1011.8 |
| 20260503004538 | 21 | 172 | 4.8 | 9.7 | 0.00 | 0.00 | 0.00 | 65 | 1011.9 |
| 20260503004026 | 21 | 217 | 6.4 | 11.3 | 0.00 | 0.00 | 0.00 | 62 | 1011.9 |
| 20260503003526 | 21 | 212 | 6.4 | 11.3 | 0.00 | 0.00 | 0.00 | 63 | 1011.9 |
| 20260503003043 | 21 | 205 | 6.4 | 11.3 | 0.00 | 0.00 | 0.00 | 64 | 1012.0 |
| 20260503002525 | 21 | 214 | 6.4 | 11.3 | 0.00 | 0.00 | 0.00 | 65 | 1011.9 |
| 20260503002024 | 21 | 214 | 6.4 | 11.3 | 0.00 | 0.00 | 0.00 | 63 | 1012.0 |